Flag Weather past 2 weeks in Płock, Poland

Now
33 °F

Fog.


Feels Like: 30 °F
Forecast: 26 / 31 °F
Wind: 3 mph from Southeast

Location: Plock

Current Time: Nov 27, 2014 at 8:07:11 AM

Latest Report: Nov 27, 2014 at 7:00 AM


Visibility: 2 mi

Pressure: 30.24 "Hg

Humidity: 95%

Dew point: 32 °F

Location of PłockLocation

Historic Weather in Płock — Graph

°F

Płock temperature yesterday

Maximum temperature yesterday: 40 °F (at 2:00 PM)
Minimum temperature yesterday: 36 °F (at 11:00 PM)
Average temperature yesterday: 39 °F

Past Weeks' High & Low Weather Summary

 TemperatureHumidityPressure
High48 °F (Nov 13, 2:00 PM)100% (Nov 23, 5:00 AM)30.49 "Hg (Nov 23, 5:00 AM)
Low31 °F (Nov 23, 5:00 AM)70% (Nov 24, 3:00 PM)29.87 "Hg (Nov 16, 2:00 PM)
Average39 °F93%30.17 "Hg
* Reported Nov 12 6:00 AM — Nov 27 6:00 AM, Płock, Weather by CustomWeather, © 2014

Note: Actual official high and low records may vary slightly from our data, if they occured in-between our weather recording intervals... More about our weather records

Advertising

Płock weather history for previous 24 hours

 ConditionsComfort  
Time TempWeatherWind HumidityBarometerVisibility
6:00 AM
Nov 27
33 °FFog.3 mph96%30.24 "Hg1 mi
5:00 AM33 °FFog.3 mph97%30.24 "Hg1 mi
4:00 AM33 °FFog.3 mph96%30.25 "Hg2 mi
3:00 AM34 °FFog.3 mph94%30.25 "Hg2 mi
2:00 AM35 °FFog.3 mph95%30.26 "Hg2 mi
12:00 AM35 °FFog.2 mph92%30.28 "Hg4 mi
11:00 PM
Nov 26
36 °FFog.3 mph91%30.29 "Hg3 mi
10:00 PM37 °FFog.3 mph90%30.29 "Hg5 mi
9:00 PM37 °FFog.3 mph90%30.29 "Hg4 mi
8:00 PM37 °FFog.2 mph94%30.29 "Hg2 mi
7:00 PM37 °FFog.2 mph97%30.29 "Hg1 mi
6:00 PM37 °FChilly.3 mph98%30.29 "Hg1 mi
5:00 PM38 °FFog.3 mph97%30.29 "Hg1 mi
4:00 PM39 °FFog.3 mph96%30.29 "Hg1 mi
3:00 PM40 °FFog.2 mph93%30.30 "Hg2 mi
2:00 PM40 °FFog.2 mph93%30.30 "Hg2 mi
1:00 PM40 °FFog.2 mph95%30.31 "Hg1 mi
12:00 PM40 °FFog.3 mph98%30.32 "Hg1 mi
11:00 AM39 °FFog.2 mph99%30.33 "Hg1 mi
10:00 AM39 °FDuststorm.2 mph99%30.33 "Hg1 mi
9:00 AM39 °FDuststorm.2 mph100%30.33 "Hg1 mi
8:00 AM39 °FDuststorm.2 mph99%30.33 "Hg0 mi
Weather by CustomWeather, © 2014

See weather overviewHow to use our weather pages